Time,TemperatureF,DewpointF,PressureIn,WindDirection,WindDirectionDegrees,WindSpeedMPH,WindSpeedGustMPH,Humidity,HourlyPrecipIn,Conditions,Clouds,dailyrainin,SoftwareType,DateUTC
2013-08-21 00:04:00,69.3,65.6,30.01,SSE,156,2.0,3.5,88,0.00,CLR,,0.00,WeatherDisplay:10.37,2013-08-21 05:04:00,
2013-08-21 00:09:00,69.3,65.6,30.02,SSE,156,2.1,4.6,88,0.00,CLR,,0.00,WeatherDisplay:10.37,2013-08-21 05:09:00,
2013-08-21 00:14:00,69.3,65.6,30.01,SSE,157,2.7,4.0,88,0.00,CLR,,0.00,WeatherDisplay:10.37,2013-08-21 05:14:00,
2013-08-21 00:19:00,69.3,65.6,30.01,SSE,157,3.5,3.5,88,0.00,CLR,,0.00,WeatherDisplay:10.37,2013-08-21 05:19:00,
2013-08-21 00:24:00,69.4,65.7,30.01,SSE,156,2.4,4.0,88,0.00,CLR,,0.00,WeatherDisplay:10.37,2013-08-21 05:24:00,
2013-08-21 00:29:00,69.4,65.7,30.01,SSE,156,2.4,4.0,88,0.00,CLR,,0.00,WeatherDisplay:10.37,2013-08-21 05:29:00,
2013-08-21 00:34:00,69.4,65.7,30.01,SSE,156,3.0,3.5,88,0.00,CLR,,0.00,WeatherDisplay:10.37,2013-08-21 05:34:00,
2013-08-21 00:39:00,69.4,65.7,30.01,SSE,156,2.6,4.0,88,0.00,CLR,,0.00,WeatherDisplay:10.37,2013-08-21 05:39:00,
2013-08-21 00:44:00,69.3,65.6,30.02,SSE,157,2.7,3.5,88,0.00,CLR,,0.00,WeatherDisplay:10.37,2013-08-21 05:44:00,
2013-08-21 00:49:00,69.1,65.4,30.02,SSE,156,0.6,3.5,88,0.00,CLR,,0.00,WeatherDisplay:10.37,2013-08-21 05:49:00,
2013-08-21 00:54:00,68.8,65.1,30.02,SSE,157,1.5,3.5,88,0.00,CLR,,0.00,WeatherDisplay:10.37,2013-08-21 05:54:00,
2013-08-21 00:59:00,68.6,65.2,30.02,SSE,156,2.8,4.0,89,0.00,CLR,,0.00,WeatherDisplay:10.37,2013-08-21 05:59:00,
2013-08-21 01:04:00,68.4,65.0,30.02,SSE,157,2.5,3.5,89,0.00,CLR,,0.00,WeatherDisplay:10.37,2013-08-21 06:04:00,
2013-08-21 01:09:00,68.3,64.9,30.01,SSE,156,0.7,3.0,89,0.00,CLR,,0.00,WeatherDisplay:10.37,2013-08-21 06:09:00,
2013-08-21 01:14:00,68.2,65.2,30.02,SSE,156,1.1,2.3,90,0.00,CLR,,0.00,WeatherDisplay:10.37,2013-08-21 06:14:00,
2013-08-21 01:19:00,68.2,65.2,30.01,SSE,156,2.9,4.0,90,0.00,CLR,,0.00,WeatherDisplay:10.37,2013-08-21 06:19:00,
2013-08-21 01:24:00,68.3,65.3,30.01,SSE,157,1.9,3.5,90,0.00,CLR,,0.00,WeatherDisplay:10.37,2013-08-21 06:24:00,
2013-08-21 01:29:00,68.5,65.4,30.01,SSE,156,2.2,3.5,90,0.00,CLR,,0.00,WeatherDisplay:10.37,2013-08-21 06:29:00,
2013-08-21 01:34:00,68.5,65.4,30.01,SSE,157,3.3,4.0,90,0.00,CLR,,0.00,WeatherDisplay:10.37,2013-08-21 06:34:00,
2013-08-21 01:39:00,68.4,65.4,30.01,SSE,156,3.1,3.5,90,0.00,CLR,,0.00,WeatherDisplay:10.37,2013-08-21 06:39:00,
2013-08-21 01:44:00,68.3,65.3,30.01,SSE,156,3.0,3.5,90,0.00,CLR,,0.00,WeatherDisplay:10.37,2013-08-21 06:44:00,
2013-08-21 01:49:00,68.0,65.0,30.01,SSE,157,3.2,3.5,90,0.00,CLR,,0.00,WeatherDisplay:10.37,2013-08-21 06:49:00,
2013-08-21 01:54:00,67.9,64.9,30.01,SSE,156,4.7,4.7,90,0.00,CLR,,0.00,WeatherDisplay:10.37,2013-08-21 06:54:00,
2013-08-21 01:59:00,67.9,64.9,30.01,SSE,156,4.6,5.0,90,0.00,CLR,,0.00,WeatherDisplay:10.37,2013-08-21 06:59:00,
2013-08-21 02:04:00,67.8,64.8,30.01,SSE,155,3.2,5.0,90,0.00,CLR,,0.00,WeatherDisplay:10.37,2013-08-21 07:04:00,
2013-08-21 02:09:00,67.7,65.0,30.01,SSE,149,4.3,4.6,91,0.00,CLR,,0.00,WeatherDisplay:10.37,2013-08-21 07:09:00,
2013-08-21 02:14:00,67.7,65.0,30.01,SE,142,3.2,4.6,91,0.00,CLR,,0.00,WeatherDisplay:10.37,2013-08-21 07:14:00,
2013-08-21 02:19:00,67.6,64.9,30.01,SE,142,2.3,3.5,91,0.00,CLR,,0.00,WeatherDisplay:10.37,2013-08-21 07:19:00,
2013-08-21 02:24:00,67.6,64.9,30.01,SE,143,2.6,4.0,91,0.00,CLR,,0.00,WeatherDisplay:10.37,2013-08-21 07:24:00,
2013-08-21 02:29:00,67.6,64.9,30.01,SE,135,5.5,6.9,91,0.00,CLR,,0.00,WeatherDisplay:10.37,2013-08-21 07:29:00,
2013-08-21 02:34:00,67.4,64.7,30.01,SE,126,4.9,6.9,91,0.00,CLR,,0.00,WeatherDisplay:10.37,2013-08-21 07:34:00,
2013-08-21 02:39:00,67.3,64.6,30.01,SE,128,5.5,6.9,91,0.00,CLR,,0.00,WeatherDisplay:10.37,2013-08-21 07:39:00,
2013-08-21 02:44:00,67.1,64.4,30.01,SE,131,4.3,4.6,91,0.00,CLR,,0.00,WeatherDisplay:10.37,2013-08-21 07:44:00,
2013-08-21 02:49:00,67.1,64.4,30.01,SE,130,3.4,4.0,91,0.00,CLR,,0.00,WeatherDisplay:10.37,2013-08-21 07:49:00,
2013-08-21 02:54:00,67.1,64.7,30.01,SE,134,4.1,5.8,92,0.00,CLR,,0.00,WeatherDisplay:10.37,2013-08-21 07:54:00,
2013-08-21 02:59:00,67.1,64.7,30.01,SE,141,3.2,4.0,92,0.00,CLR,,0.00,WeatherDisplay:10.37,2013-08-21 07:59:00,
2013-08-21 03:04:00,67.1,64.7,30.01,SE,146,2.6,3.5,92,0.00,CLR,,0.00,WeatherDisplay:10.37,2013-08-21 08:04:00,
2013-08-21 03:09:00,67.2,64.8,30.01,SSE,151,3.2,4.6,92,0.00,CLR,,0.00,WeatherDisplay:10.37,2013-08-21 08:09:00,
2013-08-21 03:14:00,67.2,64.5,30.01,SSE,158,2.1,3.5,91,0.00,CLR,,0.00,WeatherDisplay:10.37,2013-08-21 08:14:00,
2013-08-21 03:19:00,67.2,64.5,30.01,SE,135,4.6,4.6,91,0.00,CLR,,0.00,WeatherDisplay:10.37,2013-08-21 08:19:00,
2013-08-21 03:24:00,67.1,64.4,30.01,SE,133,4.2,5.8,91,0.00,CLR,,0.00,WeatherDisplay:10.37,2013-08-21 08:24:00,
2013-08-21 03:29:00,66.9,64.2,30.01,SE,133,4.0,4.6,91,0.00,CLR,,0.00,WeatherDisplay:10.37,2013-08-21 08:29:00,
2013-08-21 03:34:00,66.8,64.4,30.01,SE,132,3.6,5.0,92,0.00,CLR,,0.00,WeatherDisplay:10.37,2013-08-21 08:34:00,
2013-08-21 03:39:00,66.7,64.3,30.01,SE,132,3.1,4.6,92,0.00,CLR,,0.00,WeatherDisplay:10.37,2013-08-21 08:39:00,
2013-08-21 03:44:00,66.7,64.3,30.01,SE,132,3.1,4.6,92,0.00,CLR,,0.00,WeatherDisplay:10.37,2013-08-21 08:44:00,
2013-08-21 03:49:00,66.8,64.4,30.01,SE,132,3.2,4.0,92,0.00,CLR,,0.00,WeatherDisplay:10.37,2013-08-21 08:49:00,
2013-08-21 03:54:00,66.8,64.4,30.01,SE,132,3.2,3.5,92,0.00,CLR,,0.00,WeatherDisplay:10.37,2013-08-21 08:54:00,
2013-08-21 03:59:00,66.9,64.5,30.01,ESE,115,2.2,3.5,92,0.00,CLR,,0.00,WeatherDisplay:10.37,2013-08-21 08:59:00,
2013-08-21 04:04:00,67.0,64.6,30.01,SSE,152,1.7,3.5,92,0.00,CLR,,0.00,WeatherDisplay:10.37,2013-08-21 09:04:00,
2013-08-21 04:09:00,67.2,64.8,30.01,SE,139,2.1,4.6,92,0.00,CLR,,0.00,WeatherDisplay:10.37,2013-08-21 09:09:00,
2013-08-21 04:14:00,67.4,65.0,30.01,SE,140,2.6,3.5,92,0.00,CLR,,0.00,WeatherDisplay:10.37,2013-08-21 09:14:00,
2013-08-21 04:19:00,67.5,65.1,30.01,SSE,159,3.0,3.5,92,0.00,CLR,,0.00,WeatherDisplay:10.37,2013-08-21 09:19:00,
2013-08-21 04:24:00,67.6,65.2,30.01,SSE,159,2.6,3.5,92,0.00,CLR,,0.00,WeatherDisplay:10.37,2013-08-21 09:24:00,
2013-08-21 04:29:00,67.6,65.2,30.01,SSE,159,2.9,3.5,92,0.00,CLR,,0.00,WeatherDisplay:10.37,2013-08-21 09:29:00,
2013-08-21 04:34:00,67.6,65.2,30.01,SSE,159,2.1,3.5,92,0.00,CLR,,0.00,WeatherDisplay:10.37,2013-08-21 09:34:00,
2013-08-21 04:39:00,67.5,64.8,30.01,SSE,159,1.8,3.5,91,0.00,CLR,,0.00,WeatherDisplay:10.37,2013-08-21 09:39:00,
2013-08-21 04:44:00,67.4,65.0,30.01,SSE,159,2.8,3.5,92,0.00,CLR,,0.00,WeatherDisplay:10.37,2013-08-21 09:44:00,
2013-08-21 04:49:00,67.2,64.8,30.01,SSE,159,2.6,4.0,92,0.00,CLR,,0.00,WeatherDisplay:10.37,2013-08-21 09:49:00,
2013-08-21 04:54:00,67.1,64.7,30.01,SE,133,4.1,5.0,92,0.00,CLR,,0.00,WeatherDisplay:10.37,2013-08-21 09:54:00,
2013-08-21 04:59:00,67.0,64.6,30.01,SE,126,3.9,4.6,92,0.00,CLR,,0.00,WeatherDisplay:10.37,2013-08-21 09:59:00,
2013-08-21 05:04:00,67.0,64.6,30.02,SE,126,2.8,3.5,92,0.00,CLR,,0.00,WeatherDisplay:10.37,2013-08-21 10:04:00,
2013-08-21 05:09:00,67.0,64.6,30.02,SE,126,3.4,5.0,92,0.00,CLR,,0.00,WeatherDisplay:10.37,2013-08-21 10:09:00,
2013-08-21 05:14:00,67.1,65.0,30.02,SE,125,2.7,4.0,93,0.00,CLR,,0.00,WeatherDisplay:10.37,2013-08-21 10:14:00,
2013-08-21 05:19:00,67.2,65.1,30.02,SE,125,1.1,3.5,93,0.00,CLR,,0.00,WeatherDisplay:10.37,2013-08-21 10:19:00,
2013-08-21 05:24:00,67.2,65.1,30.02,SE,142,1.9,3.5,93,0.00,CLR,,0.00,WeatherDisplay:10.37,2013-08-21 10:24:00,
2013-08-21 05:29:00,67.3,65.2,30.02,SSE,167,1.6,3.5,93,0.00,CLR,,0.00,WeatherDisplay:10.37,2013-08-21 10:29:00,
2013-08-21 05:34:00,67.4,65.3,30.02,SSE,166,1.9,3.5,93,0.00,CLR,,0.00,WeatherDisplay:10.37,2013-08-21 10:34:00,
2013-08-21 05:39:00,67.5,65.4,30.02,SSE,166,2.8,3.5,93,0.00,CLR,,0.00,WeatherDisplay:10.37,2013-08-21 10:39:00,
2013-08-21 05:44:00,67.6,65.2,30.02,SE,144,3.5,4.6,92,0.00,CLR,,0.00,WeatherDisplay:10.37,2013-08-21 10:44:00,
2013-08-21 05:49:00,67.7,65.3,30.02,SE,146,4.5,5.0,92,0.00,CLR,,0.00,WeatherDisplay:10.37,2013-08-21 10:49:00,
2013-08-21 05:54:00,67.7,65.3,30.02,SSE,158,3.9,5.8,92,0.00,CLR,,0.00,WeatherDisplay:10.37,2013-08-21 10:54:00,
2013-08-21 05:59:00,67.7,65.3,30.02,SSE,152,4.0,5.8,92,0.00,CLR,,0.00,WeatherDisplay:10.37,2013-08-21 10:59:00,
2013-08-21 06:04:00,67.6,65.2,30.02,SSE,147,3.7,5.8,92,0.00,CLR,,0.00,WeatherDisplay:10.37,2013-08-21 11:04:00,
2013-08-21 06:09:00,67.6,65.2,30.02,SSE,148,3.7,6.0,92,0.00,CLR,,0.00,WeatherDisplay:10.37,2013-08-21 11:09:00,
2013-08-21 06:14:00,67.4,65.3,30.02,SSE,156,3.5,4.6,93,0.00,CLR,,0.00,WeatherDisplay:10.37,2013-08-21 11:14:00,
2013-08-21 06:19:00,67.3,65.2,30.02,SSE,155,3.4,5.8,93,0.00,CLR,,0.00,WeatherDisplay:10.37,2013-08-21 11:19:00,
2013-08-21 06:24:00,67.1,65.0,30.02,SSE,159,3.8,5.8,93,0.00,CLR,,0.00,WeatherDisplay:10.37,2013-08-21 11:24:00,
2013-08-21 06:29:00,67.0,64.9,30.02,SSE,156,2.7,3.5,93,0.00,CLR,,0.00,WeatherDisplay:10.37,2013-08-21 11:29:00,
2013-08-21 06:34:00,66.9,64.8,30.03,SSE,156,1.8,3.5,93,0.00,CLR,,0.00,WeatherDisplay:10.37,2013-08-21 11:34:00,
2013-08-21 06:39:00,66.8,64.7,30.03,SSE,156,3.9,5.8,93,0.00,CLR,,0.00,WeatherDisplay:10.37,2013-08-21 11:39:00,
2013-08-21 06:44:00,66.8,64.7,30.03,SSE,157,2.5,3.5,93,0.00,CLR,,0.00,WeatherDisplay:10.37,2013-08-21 11:44:00,
2013-08-21 06:49:00,66.9,65.1,30.03,SSE,156,2.1,3.5,94,0.00,CLR,,0.00,WeatherDisplay:10.37,2013-08-21 11:49:00,
2013-08-21 06:54:00,67.0,64.9,30.03,SSE,157,1.7,3.5,93,0.00,CLR,,0.00,WeatherDisplay:10.37,2013-08-21 11:54:00,
2013-08-21 06:59:00,67.1,65.0,30.03,SSE,157,3.1,4.0,93,0.00,CLR,,0.00,WeatherDisplay:10.37,2013-08-21 11:59:00,
2013-08-21 07:04:00,67.3,65.2,30.03,SSE,157,3.3,4.6,93,0.00,CLR,,0.00,WeatherDisplay:10.37,2013-08-21 12:04:00,
2013-08-21 07:09:00,67.4,65.3,30.03,SSE,156,4.3,5.0,93,0.00,CLR,,0.00,WeatherDisplay:10.37,2013-08-21 12:09:00,
2013-08-21 07:14:00,67.5,65.4,30.03,SSE,156,3.0,4.6,93,0.00,CLR,,0.00,WeatherDisplay:10.37,2013-08-21 12:14:00,
2013-08-21 07:19:00,67.5,65.4,30.03,SSE,155,4.0,4.6,93,0.00,CLR,,0.00,WeatherDisplay:10.37,2013-08-21 12:19:00,
2013-08-21 07:24:00,67.5,65.4,30.03,SSE,155,3.2,4.6,93,0.00,CLR,,0.00,WeatherDisplay:10.37,2013-08-21 12:24:00,
2013-08-21 07:29:00,67.6,65.5,30.04,SSE,155,4.0,5.8,93,0.00,CLR,,0.00,WeatherDisplay:10.37,2013-08-21 12:29:00,
2013-08-21 07:34:00,67.7,65.6,30.04,SSE,155,3.6,4.6,93,0.00,CLR,,0.00,WeatherDisplay:10.37,2013-08-21 12:34:00,
2013-08-21 07:39:00,67.9,65.8,30.04,SSE,155,3.8,5.0,93,0.00,CLR,,0.00,WeatherDisplay:10.37,2013-08-21 12:39:00,
2013-08-21 07:44:00,68.2,66.1,30.04,SSE,150,2.7,3.5,93,0.00,CLR,,0.00,WeatherDisplay:10.37,2013-08-21 12:44:00,
2013-08-21 07:49:00,68.5,66.1,30.04,SSE,161,4.6,6.9,92,0.00,CLR,,0.00,WeatherDisplay:10.37,2013-08-21 12:49:00,
2013-08-21 07:54:00,68.9,66.5,30.04,SSE,157,4.0,4.0,92,0.00,CLR,,0.00,WeatherDisplay:10.37,2013-08-21 12:54:00,
2013-08-21 07:59:00,69.3,66.9,30.04,SSE,159,4.7,5.0,92,0.00,CLR,,0.00,WeatherDisplay:10.37,2013-08-21 12:59:00,
2013-08-21 08:04:00,69.5,66.8,30.04,SSE,155,4.7,8.1,91,0.00,CLR,,0.00,WeatherDisplay:10.37,2013-08-21 13:04:00,
2013-08-21 08:09:00,69.7,67.0,30.05,SSE,167,5.3,6.0,91,0.00,CLR,,0.00,WeatherDisplay:10.37,2013-08-21 13:09:00,
2013-08-21 08:14:00,70.0,67.3,30.05,SSE,153,4.1,8.1,91,0.00,CLR,,0.00,WeatherDisplay:10.37,2013-08-21 13:14:00,
2013-08-21 08:19:00,70.2,67.1,30.04,SSE,157,4.9,9.2,90,0.00,CLR,,0.00,WeatherDisplay:10.37,2013-08-21 13:19:00,
2013-08-21 08:24:00,70.5,67.4,30.04,SSE,151,5.9,8.1,90,0.00,CLR,,0.00,WeatherDisplay:10.37,2013-08-21 13:24:00,
2013-08-21 08:29:00,70.9,67.5,30.05,SSE,158,5.5,6.9,89,0.00,CLR,,0.00,WeatherDisplay:10.37,2013-08-21 13:29:00,
2013-08-21 08:34:00,71.5,67.8,30.04,South,178,4.2,6.0,88,0.00,CLR,,0.00,WeatherDisplay:10.37,2013-08-21 13:34:00,
2013-08-21 08:39:00,71.8,68.1,30.04,SE,137,5.8,8.1,88,0.00,CLR,,0.00,WeatherDisplay:10.37,2013-08-21 13:39:00,
2013-08-21 08:44:00,72.1,68.3,30.04,South,184,4.4,7.0,88,0.00,CLR,,0.00,WeatherDisplay:10.37,2013-08-21 13:44:00,
2013-08-21 08:49:00,72.6,68.5,30.04,South,184,4.5,5.8,87,0.00,CLR,,0.00,WeatherDisplay:10.37,2013-08-21 13:49:00,
2013-08-21 08:54:00,73.1,68.7,30.04,South,173,4.7,10.4,86,0.00,CLR,,0.00,WeatherDisplay:10.37,2013-08-21 13:54:00,
2013-08-21 08:59:00,73.7,68.9,30.04,South,187,3.4,8.1,85,0.00,CLR,,0.00,WeatherDisplay:10.37,2013-08-21 13:59:00,
2013-08-21 09:04:00,74.2,69.1,30.04,SSE,163,4.5,8.1,84,0.00,CLR,,0.00,WeatherDisplay:10.37,2013-08-21 14:04:00,
2013-08-21 09:09:00,74.8,69.3,30.04,SSE,161,5.6,5.8,83,0.00,CLR,,0.00,WeatherDisplay:10.37,2013-08-21 14:09:00,
2013-08-21 09:14:00,75.6,69.7,30.04,South,181,3.9,5.8,82,0.00,CLR,,0.00,WeatherDisplay:10.37,2013-08-21 14:14:00,
2013-08-21 09:19:00,76.2,69.9,30.04,SE,145,2.5,6.0,81,0.00,CLR,,0.00,WeatherDisplay:10.37,2013-08-21 14:19:00,
2013-08-21 09:24:00,76.2,69.6,30.04,SSE,165,3.5,5.8,80,0.00,CLR,,0.00,WeatherDisplay:10.37,2013-08-21 14:24:00,
2013-08-21 09:29:00,76.8,69.8,30.03,SSW,200,5.9,9.0,79,0.00,CLR,,0.00,WeatherDisplay:10.37,2013-08-21 14:29:00,
2013-08-21 09:34:00,76.6,69.6,30.04,SSW,195,3.3,6.9,79,0.00,CLR,,0.00,WeatherDisplay:10.37,2013-08-21 14:34:00,
2013-08-21 09:39:00,76.6,69.6,30.04,South,184,4.7,4.7,79,0.00,CLR,,0.00,WeatherDisplay:10.37,2013-08-21 14:39:00,
2013-08-21 09:44:00,76.9,69.9,30.04,SSW,201,4.1,9.2,79,0.00,CLR,,0.00,WeatherDisplay:10.37,2013-08-21 14:44:00,
2013-08-21 09:49:00,78.2,70.8,30.04,SSW,201,4.6,8.1,78,0.00,CLR,,0.00,WeatherDisplay:10.37,2013-08-21 14:49:00,
2013-08-21 09:54:00,79.0,70.4,30.04,SE,143,3.3,6.9,75,0.00,CLR,,0.00,WeatherDisplay:10.37,2013-08-21 14:54:00,
2013-08-21 09:59:00,79.7,70.7,30.04,South,180,5.7,8.1,74,0.00,CLR,,0.00,WeatherDisplay:10.37,2013-08-21 14:59:00,
2013-08-21 10:04:00,80.2,71.2,30.04,South,183,4.3,4.3,74,0.00,CLR,,0.00,WeatherDisplay:10.37,2013-08-21 15:04:00,
2013-08-21 10:09:00,80.4,70.1,30.04,South,180,6.7,9.2,71,0.00,CLR,,0.00,WeatherDisplay:10.37,2013-08-21 15:09:00,
2013-08-21 10:14:00,80.5,70.2,30.04,SSE,153,4.7,11.5,71,0.00,CLR,,0.00,WeatherDisplay:10.37,2013-08-21 15:14:00,
2013-08-21 10:19:00,80.6,70.3,30.04,South,186,7.7,11.5,71,0.00,CLR,,0.00,WeatherDisplay:10.37,2013-08-21 15:19:00,
2013-08-21 10:24:00,81.0,70.3,30.04,South,180,6.8,11.5,70,0.00,CLR,,0.00,WeatherDisplay:10.37,2013-08-21 15:24:00,
2013-08-21 10:29:00,81.6,70.9,30.04,SSE,155,6.0,10.4,70,0.00,CLR,,0.00,WeatherDisplay:10.37,2013-08-21 15:29:00,
2013-08-21 10:34:00,81.9,70.3,30.03,SSW,195,4.2,10.4,68,0.00,CLR,,0.00,WeatherDisplay:10.37,2013-08-21 15:34:00,
2013-08-21 10:39:00,81.8,70.2,30.03,SSE,159,6.5,8.1,68,0.00,CLR,,0.00,WeatherDisplay:10.37,2013-08-21 15:39:00,
2013-08-21 10:44:00,82.0,70.4,30.03,South,190,6.4,11.5,68,0.00,CLR,,0.00,WeatherDisplay:10.37,2013-08-21 15:44:00,
2013-08-21 10:49:00,82.7,71.1,30.03,SSW,202,3.7,9.2,68,0.00,CLR,,0.00,WeatherDisplay:10.37,2013-08-21 15:49:00,
2013-08-21 10:54:00,83.0,70.9,30.03,South,170,4.6,9.2,67,0.00,CLR,,0.00,WeatherDisplay:10.37,2013-08-21 15:54:00,
2013-08-21 10:59:00,83.2,70.7,30.03,SSW,200,7.6,11.5,66,0.00,CLR,,0.00,WeatherDisplay:10.37,2013-08-21 15:59:00,
2013-08-21 11:04:00,83.9,70.9,30.03,SW,219,4.6,8.1,65,0.00,CLR,,0.00,WeatherDisplay:10.37,2013-08-21 16:04:00,
2013-08-21 11:10:00,84.0,71.0,30.03,SSE,157,6.8,9.2,65,0.00,CLR,,0.00,WeatherDisplay:10.37,2013-08-21 16:10:00,
2013-08-21 11:15:00,83.3,69.8,30.03,SSW,192,7.1,10.4,64,0.00,CLR,,0.00,WeatherDisplay:10.37,2013-08-21 16:15:00,
2013-08-21 11:20:00,83.4,70.4,30.03,SW,222,5.2,9.0,65,0.00,CLR,,0.00,WeatherDisplay:10.37,2013-08-21 16:20:00,
2013-08-21 11:25:00,83.7,69.8,30.03,SSW,196,6.5,11.5,63,0.00,CLR,,0.00,WeatherDisplay:10.37,2013-08-21 16:25:00,
2013-08-21 11:30:00,84.0,69.6,30.03,SSW,205,6.2,11.5,62,0.00,CLR,,0.00,WeatherDisplay:10.37,2013-08-21 16:30:00,
2013-08-21 11:35:00,84.5,71.0,30.03,SSE,148,3.5,5.8,64,0.00,CLR,,0.00,WeatherDisplay:10.37,2013-08-21 16:35:00,
2013-08-21 11:40:00,84.6,70.1,30.03,SSW,194,6.9,10.4,62,0.00,CLR,,0.00,WeatherDisplay:10.37,2013-08-21 16:40:00,
2013-08-21 11:45:00,85.0,69.6,30.03,SW,228,9.7,13.8,60,0.00,CLR,,0.00,WeatherDisplay:10.37,2013-08-21 16:45:00,
2013-08-21 11:50:00,84.8,69.4,30.03,SSW,205,7.6,13.8,60,0.00,CLR,,0.00,WeatherDisplay:10.37,2013-08-21 16:50:00,
2013-08-21 11:55:00,85.6,70.1,30.03,South,178,4.8,5.8,60,0.00,CLR,,0.00,WeatherDisplay:10.37,2013-08-21 16:55:00,
2013-08-21 12:01:00,85.8,70.3,30.03,SSE,150,5.5,5.5,60,0.00,CLR,,0.00,WeatherDisplay:10.37,2013-08-21 17:01:00,
2013-08-21 12:19:00,86.1,69.1,30.02,SW,219,9.1,10.4,57,0.00,CLR,,0.00,WeatherDisplay:10.37,2013-08-21 17:19:00,
2013-08-21 12:24:00,85.8,70.3,30.02,SW,215,6.7,6.9,60,0.00,CLR,,0.00,WeatherDisplay:10.37,2013-08-21 17:24:00,
2013-08-21 12:29:00,87.0,70.4,30.02,South,178,6.9,10.4,58,0.00,CLR,,0.00,WeatherDisplay:10.37,2013-08-21 17:29:00,
2013-08-21 12:34:00,86.7,69.1,30.02,SSE,167,4.9,6.9,56,0.00,CLR,,0.00,WeatherDisplay:10.37,2013-08-21 17:34:00,
2013-08-21 12:39:00,85.9,68.4,30.02,SSE,152,9.2,13.8,56,0.00,CLR,,0.00,WeatherDisplay:10.37,2013-08-21 17:39:00,
2013-08-21 12:44:00,86.0,68.0,30.02,South,188,8.7,11.5,55,0.00,CLR,,0.00,WeatherDisplay:10.37,2013-08-21 17:44:00,
2013-08-21 12:49:00,86.0,69.5,30.02,South,179,4.0,8.1,58,0.00,CLR,,0.00,WeatherDisplay:10.37,2013-08-21 17:49:00,
2013-08-21 12:54:00,86.5,70.0,30.02,SSW,199,2.3,8.1,58,0.00,CLR,,0.00,WeatherDisplay:10.37,2013-08-21 17:54:00,
2013-08-21 12:59:00,86.2,68.7,30.02,SSW,212,6.7,11.5,56,0.00,CLR,,0.00,WeatherDisplay:10.37,2013-08-21 17:59:00,
2013-08-21 13:04:00,86.5,70.5,30.02,SSE,155,4.1,6.9,59,0.00,CLR,,0.00,WeatherDisplay:10.37,2013-08-21 18:04:00,
2013-08-21 13:09:00,87.1,69.5,30.02,SSW,199,8.8,12.7,56,0.00,CLR,,0.00,WeatherDisplay:10.37,2013-08-21 18:09:00,
2013-08-21 13:14:00,87.5,69.9,30.01,SSE,151,8.3,11.5,56,0.00,CLR,,0.00,WeatherDisplay:10.37,2013-08-21 18:14:00,
2013-08-21 13:19:00,87.6,69.4,30.01,SSE,159,6.8,15.0,55,0.00,CLR,,0.00,WeatherDisplay:10.37,2013-08-21 18:19:00,
2013-08-21 13:24:00,87.4,68.7,30.01,South,174,6.3,12.7,54,0.00,CLR,,0.00,WeatherDisplay:10.37,2013-08-21 18:24:00,
2013-08-21 13:29:00,87.2,69.6,30.01,SSW,211,4.3,11.5,56,0.00,CLR,,0.00,WeatherDisplay:10.37,2013-08-21 18:29:00,
2013-08-21 13:34:00,87.5,69.3,30.01,SSE,160,10.0,12.7,55,0.00,CLR,,0.00,WeatherDisplay:10.37,2013-08-21 18:34:00,
2013-08-21 13:39:00,87.3,69.7,30.01,SW,229,6.3,8.1,56,0.00,CLR,,0.00,WeatherDisplay:10.37,2013-08-21 18:39:00,
2013-08-21 13:44:00,87.8,69.1,30.01,SE,143,7.8,11.5,54,0.00,CLR,,0.00,WeatherDisplay:10.37,2013-08-21 18:44:00,
2013-08-21 13:49:00,88.0,68.7,30.01,SSE,152,6.6,10.4,53,0.00,CLR,,0.00,WeatherDisplay:10.37,2013-08-21 18:49:00,
2013-08-21 13:54:00,87.4,68.7,30.01,SW,226,8.3,13.8,54,0.00,CLR,,0.00,WeatherDisplay:10.37,2013-08-21 18:54:00,
2013-08-21 13:59:00,87.4,69.8,30.01,SSE,163,8.2,11.5,56,0.00,CLR,,0.00,WeatherDisplay:10.37,2013-08-21 18:59:00,
2013-08-21 14:04:00,87.4,68.7,30.01,SSE,152,7.4,10.4,54,0.00,CLR,,0.00,WeatherDisplay:10.37,2013-08-21 19:04:00,
2013-08-21 14:09:00,87.5,69.3,30.00,SSE,166,6.3,10.4,55,0.00,CLR,,0.00,WeatherDisplay:10.37,2013-08-21 19:09:00,
2013-08-21 14:14:00,87.9,69.7,30.00,SSW,205,5.8,8.1,55,0.00,CLR,,0.00,WeatherDisplay:10.37,2013-08-21 19:14:00,
2013-08-21 14:19:00,87.6,70.5,30.01,SW,229,5.7,9.0,57,0.00,CLR,,0.00,WeatherDisplay:10.37,2013-08-21 19:19:00,
2013-08-21 14:24:00,87.8,70.7,30.00,SE,132,4.9,9.2,57,0.00,CLR,,0.00,WeatherDisplay:10.37,2013-08-21 19:24:00,
2013-08-21 14:29:00,87.6,68.9,30.00,South,185,7.4,11.5,54,0.00,CLR,,0.00,WeatherDisplay:10.37,2013-08-21 19:29:00,
2013-08-21 14:34:00,87.2,69.1,30.00,SE,129,6.0,11.5,55,0.00,CLR,,0.00,WeatherDisplay:10.37,2013-08-21 19:34:00,
2013-08-21 14:39:00,88.0,70.3,30.00,South,188,7.6,11.5,56,0.00,CLR,,0.00,WeatherDisplay:10.37,2013-08-21 19:39:00,
2013-08-21 14:44:00,88.1,69.9,29.99,SSE,158,7.9,11.5,55,0.00,CLR,,0.00,WeatherDisplay:10.37,2013-08-21 19:44:00,
2013-08-21 14:49:00,87.9,69.7,29.99,SW,222,5.4,10.4,55,0.00,CLR,,0.00,WeatherDisplay:10.37,2013-08-21 19:49:00,
2013-08-21 14:55:00,88.2,70.5,29.99,South,188,4.6,10.4,56,0.00,CLR,,0.00,WeatherDisplay:10.37,2013-08-21 19:55:00,
2013-08-21 15:00:00,87.9,70.2,29.99,SSW,200,7.8,12.7,56,0.00,CLR,,0.00,WeatherDisplay:10.37,2013-08-21 20:00:00,
2013-08-21 15:05:00,87.6,70.0,29.99,South,188,8.6,19.6,56,0.00,CLR,,0.00,WeatherDisplay:10.37,2013-08-21 20:05:00,
2013-08-21 15:10:00,87.4,69.3,29.99,South,169,7.5,11.5,55,0.00,CLR,,0.00,WeatherDisplay:10.37,2013-08-21 20:10:00,
2013-08-21 15:15:00,87.6,70.5,29.99,South,171,7.2,9.2,57,0.00,CLR,,0.00,WeatherDisplay:10.37,2013-08-21 20:15:00,
2013-08-21 15:20:00,87.4,69.8,29.99,SSE,165,6.2,11.5,56,0.00,CLR,,0.00,WeatherDisplay:10.37,2013-08-21 20:20:00,
2013-08-21 15:25:00,87.4,69.3,29.99,SSE,159,7.3,13.8,55,0.00,CLR,,0.00,WeatherDisplay:10.37,2013-08-21 20:25:00,
2013-08-21 15:30:00,87.2,69.6,29.99,South,174,6.3,12.7,56,0.00,CLR,,0.00,WeatherDisplay:10.37,2013-08-21 20:30:00,
2013-08-21 15:35:00,87.5,70.4,29.99,SW,217,4.1,8.1,57,0.00,CLR,,0.00,WeatherDisplay:10.37,2013-08-21 20:35:00,
2013-08-21 15:40:00,88.0,70.3,29.98,SSW,213,4.8,10.4,56,0.00,CLR,,0.00,WeatherDisplay:10.37,2013-08-21 20:40:00,
2013-08-21 15:45:00,87.7,70.1,29.99,SW,225,6.3,6.9,56,0.00,CLR,,0.00,WeatherDisplay:10.37,2013-08-21 20:45:00,
2013-08-21 15:50:00,87.5,69.9,29.99,SSW,198,5.0,10.4,56,0.00,CLR,,0.00,WeatherDisplay:10.37,2013-08-21 20:50:00,
2013-08-21 15:55:00,87.3,69.7,29.98,SE,142,7.5,7.5,56,0.00,CLR,,0.00,WeatherDisplay:10.37,2013-08-21 20:55:00,
2013-08-21 16:00:00,87.7,70.6,29.98,South,177,6.0,8.0,57,0.00,CLR,,0.00,WeatherDisplay:10.37,2013-08-21 21:00:00,
2013-08-21 16:05:00,87.4,69.3,29.98,South,173,9.8,11.5,55,0.00,CLR,,0.00,WeatherDisplay:10.37,2013-08-21 21:05:00,
2013-08-21 16:10:00,87.3,69.2,29.98,SSE,166,8.8,10.4,55,0.00,CLR,,0.00,WeatherDisplay:10.37,2013-08-21 21:10:00,
2013-08-21 16:15:00,87.4,69.3,29.98,South,186,8.1,11.5,55,0.00,CLR,,0.00,WeatherDisplay:10.37,2013-08-21 21:15:00,
2013-08-21 16:20:00,87.0,69.9,29.97,SE,143,3.9,9.2,57,0.00,CLR,,0.00,WeatherDisplay:10.37,2013-08-21 21:20:00,
2013-08-21 16:25:00,87.3,70.2,29.97,South,189,8.0,13.0,57,0.00,CLR,,0.00,WeatherDisplay:10.37,2013-08-21 21:25:00,
2013-08-21 16:30:00,86.8,69.2,29.97,SSW,200,6.5,10.4,56,0.00,CLR,,0.00,WeatherDisplay:10.37,2013-08-21 21:30:00,
2013-08-21 16:35:00,86.9,69.3,29.97,SSE,164,5.9,10.4,56,0.00,CLR,,0.00,WeatherDisplay:10.37,2013-08-21 21:35:00,
2013-08-21 16:40:00,87.1,70.0,29.97,SSW,208,5.5,10.4,57,0.00,CLR,,0.00,WeatherDisplay:10.37,2013-08-21 21:40:00,
2013-08-21 16:45:00,86.4,69.9,29.97,SW,217,5.7,10.4,58,0.00,CLR,,0.00,WeatherDisplay:10.37,2013-08-21 21:45:00,
2013-08-21 16:50:00,86.2,69.7,29.97,SSW,196,9.3,15.0,58,0.00,CLR,,0.00,WeatherDisplay:10.37,2013-08-21 21:50:00,
2013-08-21 16:55:00,86.2,69.7,29.97,South,182,8.2,13.8,58,0.00,CLR,,0.00,WeatherDisplay:10.37,2013-08-21 21:55:00,
2013-08-21 17:00:00,85.9,69.9,29.96,SE,138,4.0,11.5,59,0.00,CLR,,0.00,WeatherDisplay:10.37,2013-08-21 22:00:00,
2013-08-21 17:05:00,85.7,69.7,29.96,South,180,7.2,10.0,59,0.00,CLR,,0.00,WeatherDisplay:10.37,2013-08-21 22:05:00,
2013-08-21 17:10:00,85.5,69.0,29.96,SSW,197,7.3,10.4,58,0.00,CLR,,0.00,WeatherDisplay:10.37,2013-08-21 22:10:00,
2013-08-21 17:15:00,85.8,69.8,29.96,SSE,155,7.0,11.5,59,0.00,CLR,,0.00,WeatherDisplay:10.37,2013-08-21 22:15:00,
2013-08-21 17:20:00,85.6,70.1,29.96,SSW,198,6.7,14.0,60,0.00,CLR,,0.00,WeatherDisplay:10.37,2013-08-21 22:20:00,
2013-08-21 17:25:00,85.1,69.7,29.96,SSE,164,5.5,11.5,60,0.00,CLR,,0.00,WeatherDisplay:10.37,2013-08-21 22:25:00,
2013-08-21 17:30:00,85.0,70.0,29.96,SW,231,7.4,11.5,61,0.00,CLR,,0.00,WeatherDisplay:10.37,2013-08-21 22:30:00,
2013-08-21 17:35:00,84.9,69.9,29.95,SSE,163,6.8,11.5,61,0.00,CLR,,0.00,WeatherDisplay:10.37,2013-08-21 22:35:00,
2013-08-21 17:40:00,84.8,70.3,29.95,South,190,7.0,11.5,62,0.00,CLR,,0.00,WeatherDisplay:10.37,2013-08-21 22:40:00,
2013-08-21 17:45:00,84.6,70.6,29.95,South,188,6.0,13.0,63,0.00,CLR,,0.00,WeatherDisplay:10.37,2013-08-21 22:45:00,
2013-08-21 17:50:00,84.4,70.9,29.95,South,183,4.9,8.1,64,0.00,CLR,,0.00,WeatherDisplay:10.37,2013-08-21 22:50:00,
2013-08-21 17:55:00,84.2,70.2,29.95,South,178,6.6,9.2,63,0.00,CLR,,0.00,WeatherDisplay:10.37,2013-08-21 22:55:00,
2013-08-21 18:00:00,84.0,70.0,29.95,SW,216,5.8,8.1,63,0.00,CLR,,0.00,WeatherDisplay:10.37,2013-08-21 23:00:00,
2013-08-21 18:05:00,83.8,69.9,29.95,South,186,6.5,10.4,63,0.00,CLR,,0.00,WeatherDisplay:10.37,2013-08-21 23:05:00,
2013-08-21 18:10:00,83.6,70.1,29.95,South,169,5.7,10.4,64,0.00,CLR,,0.00,WeatherDisplay:10.37,2013-08-21 23:10:00,
2013-08-21 18:15:00,83.5,70.5,29.94,South,185,5.3,8.1,65,0.00,CLR,,0.00,WeatherDisplay:10.37,2013-08-21 23:15:00,
2013-08-21 18:20:00,83.3,70.3,29.94,SSW,197,3.5,5.8,65,0.00,CLR,,0.00,WeatherDisplay:10.37,2013-08-21 23:20:00,
2013-08-21 18:25:00,83.1,70.1,29.94,SSE,158,4.4,6.9,65,0.00,CLR,,0.00,WeatherDisplay:10.37,2013-08-21 23:25:00,
2013-08-21 18:30:00,82.9,69.9,29.94,SSW,205,6.5,8.1,65,0.00,CLR,,0.00,WeatherDisplay:10.37,2013-08-21 23:30:00,
2013-08-21 18:35:00,82.5,70.0,29.94,South,174,5.0,9.2,66,0.00,CLR,,0.00,WeatherDisplay:10.37,2013-08-21 23:35:00,
2013-08-21 18:40:00,82.2,69.7,29.94,South,169,4.7,8.1,66,0.00,CLR,,0.00,WeatherDisplay:10.37,2013-08-21 23:40:00,
2013-08-21 18:45:00,81.9,69.9,29.94,SSW,195,2.9,5.8,67,0.00,CLR,,0.00,WeatherDisplay:10.37,2013-08-21 23:45:00,
2013-08-21 18:50:00,81.6,70.0,29.94,South,190,3.8,5.0,68,0.00,CLR,,0.00,WeatherDisplay:10.37,2013-08-21 23:50:00,
2013-08-21 18:55:00,81.4,70.2,29.94,SSE,163,2.4,4.6,69,0.00,CLR,,0.00,WeatherDisplay:10.37,2013-08-21 23:55:00,
2013-08-21 19:00:00,81.1,70.0,29.94,South,190,4.0,5.8,69,0.00,CLR,,0.00,WeatherDisplay:10.37,2013-08-22 00:00:00,
2013-08-21 19:05:00,80.8,70.1,29.94,SSW,205,1.8,3.5,70,0.00,CLR,,0.00,WeatherDisplay:10.37,2013-08-22 00:05:00,
2013-08-21 19:10:00,80.5,69.8,29.94,SSE,161,4.6,5.8,70,0.00,CLR,,0.00,WeatherDisplay:10.37,2013-08-22 00:10:00,
2013-08-21 19:15:00,80.2,69.5,29.94,SW,217,4.6,6.9,70,0.00,CLR,,0.00,WeatherDisplay:10.37,2013-08-22 00:15:00,
2013-08-21 19:20:00,79.9,69.7,29.94,South,188,2.4,3.5,71,0.00,CLR,,0.00,WeatherDisplay:10.37,2013-08-22 00:20:00,
2013-08-21 19:25:00,79.6,69.8,29.94,SSW,205,2.8,4.6,72,0.00,CLR,,0.00,WeatherDisplay:10.37,2013-08-22 00:25:00,
2013-08-21 19:30:00,79.3,69.5,29.94,South,169,2.8,5.0,72,0.00,CLR,,0.00,WeatherDisplay:10.37,2013-08-22 00:30:00,
2013-08-21 19:35:00,79.1,69.7,29.94,South,169,2.5,3.5,73,0.00,CLR,,0.00,WeatherDisplay:10.37,2013-08-22 00:35:00,
2013-08-21 19:40:00,78.8,69.4,29.95,South,188,2.4,3.5,73,0.00,CLR,,0.00,WeatherDisplay:10.37,2013-08-22 00:40:00,
2013-08-21 19:45:00,78.5,69.5,29.95,South,189,1.7,3.5,74,0.00,CLR,,0.00,WeatherDisplay:10.37,2013-08-22 00:45:00,
2013-08-21 19:50:00,78.1,69.1,29.95,South,189,1.9,3.5,74,0.00,CLR,,0.00,WeatherDisplay:10.37,2013-08-22 00:50:00,
2013-08-21 19:55:00,77.8,69.2,29.96,South,188,1.3,3.5,75,0.00,CLR,,0.00,WeatherDisplay:10.37,2013-08-22 00:55:00,
2013-08-21 20:00:00,77.4,69.2,29.96,South,189,0.9,3.5,76,0.00,CLR,,0.00,WeatherDisplay:10.37,2013-08-22 01:00:00,
2013-08-21 20:05:00,77.3,69.1,29.96,South,178,0.5,2.3,76,0.00,CLR,,0.00,WeatherDisplay:10.37,2013-08-22 01:05:00,
2013-08-21 20:10:00,77.0,68.9,29.96,South,178,0.2,1.2,76,0.00,CLR,,0.00,WeatherDisplay:10.37,2013-08-22 01:10:00,
2013-08-21 20:15:00,76.9,69.1,29.96,South,178,0.5,2.0,77,0.00,CLR,,0.00,WeatherDisplay:10.37,2013-08-22 01:15:00,
2013-08-21 20:20:00,76.7,69.3,29.96,South,178,1.4,3.5,78,0.00,CLR,,0.00,WeatherDisplay:10.37,2013-08-22 01:20:00,
2013-08-21 20:25:00,76.7,69.3,29.96,South,178,1.3,3.5,78,0.00,CLR,,0.00,WeatherDisplay:10.37,2013-08-22 01:25:00,
2013-08-21 20:30:00,76.7,69.7,29.97,South,178,1.9,3.5,79,0.00,CLR,,0.00,WeatherDisplay:10.37,2013-08-22 01:30:00,
2013-08-21 20:35:00,76.5,69.5,29.96,SSE,159,3.8,4.6,79,0.00,CLR,,0.00,WeatherDisplay:10.37,2013-08-22 01:35:00,
2013-08-21 20:40:00,76.4,69.4,29.96,SSE,156,3.6,3.6,79,0.00,CLR,,0.00,WeatherDisplay:10.37,2013-08-22 01:40:00,
2013-08-21 20:45:00,76.4,69.4,29.97,SSE,151,3.4,4.6,79,0.00,CLR,,0.00,WeatherDisplay:10.37,2013-08-22 01:45:00,
2013-08-21 20:50:00,76.2,69.6,29.97,SSE,158,5.0,5.8,80,0.00,CLR,,0.00,WeatherDisplay:10.37,2013-08-22 01:50:00,
2013-08-21 20:55:00,76.1,69.5,29.97,SSE,158,2.4,4.0,80,0.00,CLR,,0.00,WeatherDisplay:10.37,2013-08-22 01:55:00,
2013-08-21 21:00:00,76.1,69.5,29.98,SSE,158,2.5,3.5,80,0.00,CLR,,0.00,WeatherDisplay:10.37,2013-08-22 02:00:00,
2013-08-21 21:05:00,76.2,69.6,29.98,SSE,158,0.2,2.3,80,0.00,CLR,,0.00,WeatherDisplay:10.37,2013-08-22 02:05:00,
2013-08-21 21:10:00,76.3,69.7,29.99,SSE,158,0.5,2.3,80,0.00,CLR,,0.00,WeatherDisplay:10.37,2013-08-22 02:10:00,
2013-08-21 21:15:00,76.2,69.2,30.00,SSE,158,0.7,2.3,79,0.00,CLR,,0.00,WeatherDisplay:10.37,2013-08-22 02:15:00,
2013-08-21 21:20:00,76.0,69.4,30.00,SSE,158,0.8,2.3,80,0.00,CLR,,0.00,WeatherDisplay:10.37,2013-08-22 02:20:00,
2013-08-21 21:25:00,75.3,70.1,30.00,SSE,158,0.0,2.3,84,0.01,RA,,0.01,WeatherDisplay:10.37,2013-08-22 02:25:00,
2013-08-21 21:30:00,74.2,69.7,30.00,SSE,159,2.0,4.0,86,0.02,RA,,0.02,WeatherDisplay:10.37,2013-08-22 02:30:00,
2013-08-21 21:35:00,73.5,69.4,29.99,SSE,150,5.6,9.2,87,0.05,RA,,0.06,WeatherDisplay:10.37,2013-08-22 02:35:00,
2013-08-21 21:40:00,73.7,69.2,29.99,SE,146,5.6,8.1,86,0.06,RA,,0.07,WeatherDisplay:10.37,2013-08-22 02:40:00,
2013-08-21 21:45:00,73.9,69.4,29.99,SSE,158,3.9,8.1,86,0.07,RA,,0.07,WeatherDisplay:10.37,2013-08-22 02:45:00,
2013-08-21 21:50:00,74.0,69.9,29.99,South,183,3.2,4.6,87,0.07,RA,,0.07,WeatherDisplay:10.37,2013-08-22 02:50:00,
2013-08-21 21:55:00,74.1,70.0,29.99,SSE,166,2.3,5.0,87,0.07,CLR,,0.07,WeatherDisplay:10.37,2013-08-22 02:55:00,
2013-08-21 22:00:00,74.1,70.3,29.99,SSE,167,0.9,2.3,88,0.07,CLR,,0.07,WeatherDisplay:10.37,2013-08-22 03:00:00,
2013-08-21 22:05:00,73.7,69.9,29.99,SSE,167,2.1,3.5,88,0.07,CLR,,0.07,WeatherDisplay:10.37,2013-08-22 03:05:00,
2013-08-21 22:10:00,73.5,70.1,29.99,SSE,167,1.4,3.5,89,0.07,CLR,,0.07,WeatherDisplay:10.37,2013-08-22 03:10:00,
2013-08-21 22:15:00,73.3,69.9,29.99,SSE,167,2.3,3.5,89,0.07,CLR,,0.07,WeatherDisplay:10.37,2013-08-22 03:15:00,
2013-08-21 22:20:00,73.1,69.7,29.99,SSE,167,2.3,3.5,89,0.07,CLR,,0.07,WeatherDisplay:10.37,2013-08-22 03:20:00,
2013-08-21 22:25:00,73.0,69.9,29.99,SSE,167,0.9,3.5,90,0.06,CLR,,0.07,WeatherDisplay:10.37,2013-08-22 03:25:00,
2013-08-21 22:30:00,73.0,69.9,29.99,SSE,167,0.5,3.5,90,0.05,CLR,,0.07,WeatherDisplay:10.37,2013-08-22 03:30:00,
2013-08-21 22:35:00,73.0,69.9,29.99,SSE,167,0.1,1.2,90,0.02,CLR,,0.07,WeatherDisplay:10.37,2013-08-22 03:35:00,
2013-08-21 22:40:00,72.8,69.7,29.99,SSE,167,2.3,3.5,90,0.01,CLR,,0.07,WeatherDisplay:10.37,2013-08-22 03:40:00,
2013-08-21 22:45:00,72.9,69.8,29.99,SSE,167,1.3,2.3,90,0.00,CLR,,0.07,WeatherDisplay:10.37,2013-08-22 03:45:00,
2013-08-21 22:50:00,72.9,69.8,29.99,SSE,167,4.2,4.2,90,0.00,CLR,,0.07,WeatherDisplay:10.37,2013-08-22 03:50:00,
2013-08-21 22:55:00,73.0,69.9,29.99,SSE,167,1.8,3.5,90,0.00,CLR,,0.07,WeatherDisplay:10.37,2013-08-22 03:55:00,
2013-08-21 23:00:00,73.0,69.9,29.99,SSE,167,2.4,3.5,90,0.00,CLR,,0.07,WeatherDisplay:10.37,2013-08-22 04:00:00,
2013-08-21 23:01:00,73.0,69.9,29.99,SSE,167,2.2,3.5,90,0.00,CLR,,0.07,WeatherDisplay:10.37,2013-08-22 04:01:00,
2013-08-21 23:06:00,72.9,69.5,30.00,SSE,167,1.1,3.5,89,0.00,CLR,,0.07,WeatherDisplay:10.37,2013-08-22 04:06:00,
2013-08-21 23:11:00,73.0,69.6,30.00,SSE,167,0.8,3.5,89,0.00,CLR,,0.07,WeatherDisplay:10.37,2013-08-22 04:11:00,
2013-08-21 23:16:00,73.0,69.6,29.99,SSE,167,2.0,3.5,89,0.00,CLR,,0.07,WeatherDisplay:10.37,2013-08-22 04:16:00,
2013-08-21 23:21:00,72.9,69.5,29.99,SSE,167,1.9,2.3,89,0.00,CLR,,0.07,WeatherDisplay:10.37,2013-08-22 04:21:00,
2013-08-21 23:26:00,72.8,69.4,29.98,SSE,167,3.3,3.5,89,0.00,CLR,,0.07,WeatherDisplay:10.37,2013-08-22 04:26:00,
2013-08-21 23:31:00,72.7,69.3,29.98,SSE,161,4.0,4.6,89,0.00,CLR,,0.07,WeatherDisplay:10.37,2013-08-22 04:31:00,
2013-08-21 23:36:00,72.6,69.2,29.98,SSE,161,2.5,3.0,89,0.00,CLR,,0.07,WeatherDisplay:10.37,2013-08-22 04:36:00,
2013-08-21 23:41:00,72.6,69.2,29.98,SSE,161,3.1,4.6,89,0.00,CLR,,0.07,WeatherDisplay:10.37,2013-08-22 04:41:00,
2013-08-21 23:46:00,72.6,69.2,29.98,SSE,161,2.7,3.5,89,0.00,CLR,,0.07,WeatherDisplay:10.37,2013-08-22 04:46:00,
2013-08-21 23:51:00,72.6,69.2,29.98,SSE,161,0.6,3.5,89,0.00,CLR,,0.07,WeatherDisplay:10.37,2013-08-22 04:51:00,
2013-08-21 23:56:00,72.6,69.2,29.98,SSE,162,1.6,3.5,89,0.00,CLR,,0.07,WeatherDisplay:10.37,2013-08-22 04:56:00,